This demonstration page uses our WeatherBlox Daily Observations layout. Learn more.

Left ArrowRight Arrow

39.92423, -83.80882

Hourly Observations for July 26, 2022

Temp ( °F °C ) Dew Point ( °F °C ) Humidity (%) Winds ( mph kmh ) Pressure ( in mb ) Visibility ( mi km ) Precip ( " mm )
12:56 am 00:56 Mostly Clear 70 21 N/A N/A Calm 30.06 1018 10 16 0.01 0.25
1:56 am 01:56 Clear 66 19 N/A N/A Calm 30.04 1017 10 16 0.04 1.02
2:56 am 02:56 Cloudy 66 19 N/A N/A NE 5 7 30.03 1017 10 16 0.00 0.00
3:56 am 03:56 Clear 66 19 N/A N/A ENE 3 6 30.03 1017 10 16 0.00 0.00
4:56 am 04:56 Mostly Cloudy 66 19 N/A N/A Calm 30.03 1017 10 16 0.01 0.25
5:56 am 05:56 Clear 64 18 N/A N/A ENE 6 9 30.03 1017 10 16 0.00 0.00
6:56 am 06:56 Sunny 64 18 N/A N/A Calm 30.04 1017 10 16 0.00 0.00
7:56 am 07:56 Mostly Sunny 66 19 N/A N/A E 5 7 30.04 1017 10 16 0.00 0.00
8:56 am 08:56 Cloudy 67 19.4 67 19.4 100 100 E 5 7 30.05 1018 10 16 0.00 0.00
9:56 am 09:56 Cloudy 69 20.6 66 18.9 90 90 E 5 7 30.05 1018 10 16 0.00 0.00
10:56 am 10:56 Cloudy 70 21.1 66 18.9 87 87 E 5 7 30.05 1018 10 16 0.00 0.00
11:56 am 11:56 Cloudy 71 21.7 64 17.8 79 79 ESE 5 7 30.05 1018 10 16 0.00 0.00
12:56 pm 12:56 Cloudy 69 20.6 69 20.6 100 100 ESE 6 9 30.04 1017 8 13 0.00 0.00
1:56 pm 13:56 Cloudy 73 22.8 70 21.1 90 90 E 6 9 30.03 1017 10 16 0.00 0.00
2:56 pm 14:56 Cloudy 72 22.2 69 20.6 91 91 Calm 30.03 1017 10 16 0.00 0.00
3:39 pm 15:39 Cloudy 72 22 70 21 94 94 Calm 29.99 1016 9 14 0.00 0.00
3:56 pm 15:56 Cloudy with Mist and Fog 71 21.7 71 21.7 100 100 NE 3 6 30.02 1017 5 8 0.00 0.00
4:25 pm 16:25 Cloudy 72 22 72 22 100 100 NE 3 6 29.98 1015 10 16 0.00 0.00
4:38 pm 16:38 Cloudy 72 22 72 22 100 100 NE 5 7 29.98 1015 10 16 0.00 0.00
4:56 pm 16:56 Cloudy 71 21.7 71 21.7 100 100 Calm 30.01 1016 10 16 0.00 0.00
5:56 pm 17:56 Cloudy 72 22 N/A N/A Calm 30.01 1016 10 16 0.00 0.00
6:56 pm 18:56 Cloudy 71 21.7 71 21.7 100 100 Calm 29.99 1016 10 16 0.00 0.00
7:56 pm 19:56 Cloudy 70 21.1 70 21.1 100 100 Calm 29.99 1016 10 16 0.00 0.00
8:56 pm 20:56 Cloudy 70 21 N/A N/A Calm 29.99 1016 10 16 0.00 0.00
9:03 pm 21:03 Cloudy 70 21 N/A N/A SSE 3 6 29.97 1015 10 16 0.00 0.00
9:15 pm 21:15 Cloudy 70 21 N/A N/A Calm 29.97 1015 10 16 0.00 0.00
9:56 pm 21:56 Cloudy N/A N/A N/A Calm N/A 9 14 0.00 0.00
10:56 pm 22:56 Cloudy N/A N/A N/A SSE 3 6 N/A 8 13 0.00 0.00
11:21 pm 23:21 Cloudy 70 21 N/A N/A SSE 3 6 29.99 1016 10 16 0.00 0.00
11:34 pm 23:34 Cloudy 70 21 N/A N/A SSE 3 6 29.98 1015 10 16 0.00 0.00
11:56 pm 23:56 Cloudy 70 21 N/A N/A SSE 5 7 30.00 1016 10 16 0.00 0.00

Powered by AerisWeather